This is the latest recevied weather packets stored in our database for station/object W4MLN-3. If no packets are shown the sender has not sent any weather packets the latest 10 day(s).
| Time | Temp. | Humidity | Pressure | Rain* | Wind** | Luminosity | Snow |
|---|---|---|---|---|---|---|---|
| 1777913703 | 18.89° C | 43% | 1015.9 hPa | 0 mm | - | - | - |
| 1777913403 | 18.33° C | 50% | 1016 hPa | 0 mm | - | - | - |
| 1777913103 | 18.33° C | 46% | 1016.1 hPa | 0 mm | - | - | - |
| 1777912803 | 17.78° C | 48% | 1015.9 hPa | 0 mm | - | - | - |
| 1777912503 | 17.22° C | 48% | 1016 hPa | 0 mm | - | - | - |
| 1777912224 | 16.67° C | 49% | 1016 hPa | 0 mm | - | - | - |
| 1777911903 | 16.11° C | 52% | 1016 hPa | 0 mm | - | - | - |
| 1777911603 | 15.56° C | 53% | 1016 hPa | 0 mm | - | - | - |
| 1777911303 | 15.56° C | 54% | 1016.1 hPa | 0 mm | - | - | - |
| 1777911003 | 15° C | 54% | 1016.3 hPa | 0 mm | - | - | - |
| 1777910745 | 15° C | 56% | 1016.4 hPa | 0 mm | - | - | - |
| 1777910403 | 15° C | 55% | 1016.5 hPa | 0 mm | - | - | - |
| 1777910103 | 15° C | 55% | 1016.5 hPa | 0 mm | - | - | - |
| 1777909803 | 15° C | 53% | 1016.4 hPa | 0 mm | - | - | - |
| 1777909525 | 15° C | 54% | 1016.5 hPa | 0 mm | - | - | - |
| 1777909203 | 15° C | 55% | 1016.4 hPa | 0 mm | - | - | - |
| 1777908924 | 15° C | 54% | 1016.8 hPa | 0 mm | - | - | - |
| 1777908603 | 14.44° C | 57% | 1016.7 hPa | 0 mm | - | - | - |
| 1777908303 | 14.44° C | 55% | 1017 hPa | 0 mm | - | - | - |
| 1777908003 | 14.44° C | 56% | 1017.2 hPa | 0 mm | - | - | - |
| 1777907703 | 13.89° C | 56% | 1017.2 hPa | 0 mm | - | - | - |
| 1777907403 | 13.33° C | 59% | 1017.3 hPa | 0 mm | - | - | - |
| 1777907103 | 12.78° C | 58% | 1017.8 hPa | 0 mm | - | - | - |
| 1777906803 | 12.78° C | 57% | 1017.8 hPa | 0 mm | - | - | - |
| 1777906503 | 12.78° C | 58% | 1017.9 hPa | 0 mm | - | - | - |
* Rain latest hour (hover to see other rain measurements)
** Current wind speed in m/s (hover to see current wind gust speed)